Fairbanks Eiels, AK

7:46 AM AKST on January 23, 2018 (GMT -0900)
Eielson Air Force Base

Weather History for PAEI - August, 2013

Change the Weather History Date:

Monday, August 19, 2013

  Actual Average Record
Temperature  
Mean Temperature 57 °F -  
Max Temperature 64 °F 63 °F 85 °F (1950)
Min Temperature 51 °F 46 °F 35 °F (1969)
Degree Days  
Heating Degree Days 8    
Growing Degree Days 7 (Base 50)    
Moisture  
Dew Point 52 °F    
Average Humidity 84    
Maximum Humidity 95    
Minimum Humidity 63    
Precipitation  
Precipitation 0.03 in - - ()
Sea Level Pressure  
Sea Level Pressure 29.61 in    
Wind  
Wind Speed 5 mph (South)    
Max Wind Speed 10 mph    
Max Gust Speed -    
Visibility 10 miles    
Events Rain    
Averages and records for this station are not official NWS values.
T = Trace of Precipitation, MM = Missing Value Source: NWS Daily Summary

Daily Weather History Graph

Daily Weather History Graph

Search for Another Location

Airport or City:

Trip Planner

Search our weather history database for the weather conditions in past years. The results will help you decide how hot, cold, wet, or windy it might be!

Date:

Astronomy

Aug. 19, 2013 Rise Set
Actual Time 5:50 AM AKDT 9:51 PM AKDT
Civil Twilight 4:46 AM AKDT 10:53 PM AKDT
Nautical Twilight 2:46 AM AKDT 12:46 AM AKDT
Astronomical Twilight Sun does not rise Sun does not rise
Moon 8:42 PM AKDT (8/19) 4:09 AM AKDT (8/19)
Length of Visible Light 18h 07m
Length of Day
16h 01m
Waxing Gibbous, 98% of the Moon is Illuminated
Aug 19
Waxing Gibbous
Aug 20
Full
Aug 28
Last Quarter
Sep 5
New
Sep 12
First Quarter

Hourly Weather History & Observations

Time (AKDT) Temp. Dew Point Humidity Pressure Visibility Wind Dir Wind Speed Gust Speed Precip Events Conditions
12:55 AM 53.6 °F 50.4 °F 89% 29.55 in 10.0 mi Variable 5.8 mph - N/A   Overcast
1:41 AM 53.6 °F 50.0 °F 88% 29.56 in 10.0 mi Variable 4.6 mph - N/A   Overcast
1:55 AM 54.1 °F 50.5 °F 88% 29.56 in 10.0 mi Variable 5.8 mph - N/A   Overcast
2:55 AM 52.0 °F 49.6 °F 92% 29.57 in 10.0 mi Variable 4.6 mph - N/A   Partly Cloudy
3:55 AM 51.3 °F 48.7 °F 91% 29.57 in 10.0 mi SSE 3.5 mph - N/A   Overcast
4:55 AM 52.2 °F 49.3 °F 90% 29.58 in 10.0 mi Variable 4.6 mph - 0.00 in   Overcast
4:57 AM 51.8 °F 50.0 °F 94% 29.58 in 10.0 mi Variable 3.5 mph - N/A   Overcast
5:55 AM 52.0 °F 50.4 °F 94% 29.59 in 10.0 mi Variable 5.8 mph - 0.00 in   Overcast
6:55 AM 51.6 °F 50.4 °F 95% 29.59 in 10.0 mi Variable 5.8 mph - N/A   Mostly Cloudy
7:32 AM 51.8 °F 50.0 °F 94% 29.59 in 10.0 mi Variable 5.8 mph - N/A   Mostly Cloudy
7:55 AM 52.9 °F 51.3 °F 94% 29.60 in 10.0 mi Variable 5.8 mph - N/A   Mostly Cloudy
8:55 AM 54.5 °F 51.8 °F 91% 29.60 in 10.0 mi Variable 4.6 mph - N/A   Mostly Cloudy
9:42 AM 57.2 °F 53.6 °F 88% 29.61 in 10.0 mi Variable 5.8 mph - N/A   Mostly Cloudy
9:55 AM 57.2 °F 52.9 °F 85% 29.62 in 10.0 mi Variable 4.6 mph - N/A   Scattered Clouds
10:55 AM 61.9 °F 52.2 °F 70% 29.62 in 10.0 mi South 6.9 mph - N/A   Scattered Clouds
11:55 AM 61.9 °F 52.2 °F 70% 29.62 in 10.0 mi South 9.2 mph - N/A   Mostly Cloudy
12:55 PM 63.7 °F 52.0 °F 66% 29.62 in 10.0 mi South 4.6 mph - N/A   Mostly Cloudy
1:55 PM 63.5 °F 50.7 °F 63% 29.62 in 10.0 mi WSW 5.8 mph - N/A   Mostly Cloudy
2:55 PM 61.2 °F 51.8 °F 71% 29.63 in 10.0 mi South 8.1 mph - N/A   Mostly Cloudy
3:18 PM 60.8 °F 51.8 °F 72% 29.63 in 10.0 mi Variable 5.8 mph - N/A   Light Drizzle
3:55 PM 60.1 °F 54.1 °F 81% 29.63 in 10.0 mi Variable 4.6 mph - 0.00 in   Light Drizzle
4:55 PM 59.9 °F 53.8 °F 80% 29.63 in 10.0 mi SSE 10.4 mph - 0.00 in   Overcast
5:55 PM 59.2 °F 53.1 °F 80% 29.64 in 10.0 mi South 6.9 mph - 0.00 in Rain Light Rain
6:55 PM 60.4 °F 51.3 °F 72% 29.63 in 10.0 mi SE 8.1 mph - 0.00 in   Overcast
7:55 PM 59.9 °F 52.0 °F 75% 29.63 in 10.0 mi SSE 6.9 mph - N/A   Overcast
8:55 PM 58.8 °F 53.1 °F 81% 29.63 in 10.0 mi SSW 3.5 mph - N/A   Overcast
9:55 PM 57.4 °F 54.3 °F 90% 29.64 in 10.0 mi South 6.9 mph - 0.00 in   Light Drizzle
10:14 PM 57.2 °F 53.6 °F 88% 29.64 in 10.0 mi South 8.1 mph - N/A Rain Light Rain
10:55 PM 55.6 °F 52.2 °F 88% 29.65 in 10.0 mi South 4.6 mph - 0.01 in Rain Light Rain
11:26 PM 55.4 °F 51.8 °F 88% 29.65 in 6.0 mi South 5.8 mph - N/A Rain Light Rain
11:34 PM 55.4 °F 51.8 °F 88% 29.65 in 7.0 mi South 4.6 mph - N/A Rain Light Rain
11:47 PM 53.6 °F 51.8 °F 94% 29.66 in 10.0 mi Calm Calm - N/A Rain Light Rain
11:55 PM 54.3 °F 52.3 °F 93% 29.66 in 10.0 mi SW 3.5 mph - 0.02 in Rain Light Rain